MPEC 1994-X05: 1994 XM1

The following Minor Planet Electronic Circular may be linked-to from your own Web pages, but must not otherwise be redistributed electronically.


Read MPEC 1994-X04 Read MPEC 1994-X06


M.P.E.C. 1994-X05                                Issued 1994 Dec.  9, 18:37 UT

     The Minor Planet Electronic Circulars contain information on unusual
         minor planets and routine data on comets.  They are published
   on behalf of Commission 20 of the International Astronomical Union by the
          Minor Planet Center, Smithsonian Astrophysical Observatory,
                          Cambridge, MA 02138, U.S.A.

          MARSDEN@CFA or WILLIAMS@CFA (.HARVARD.EDU, .SPAN or .BITNET)

                                   1994 XM1

Discovered 1994 Dec. 9 by Spacewatch.

Available observations:
     J94X01M* C1994 12 09.20483 02 54 06.80 +07 53 52.5          17.7 V      691
     J94X01M  C1994 12 09.21353 02 53 36.03 +08 01 35.1                      691
     J94X01M  C1994 12 09.21942 02 53 14.58 +08 06 55.1                      691
     J94X01M  C1994 12 09.25389 02 51 00.96 +08 40 11.9                      691
     J94X01M  C1994 12 09.25935 02 50 38.40 +08 45 46.7                      691
     J94X01M  C1994 12 09.26472 02 50 15.64 +08 51 26.8                      691
     J94X01M  C1994 12 09.32100 02 45 52.34 +09 57 22.2          17.0 V      691
     J94X01M  C1994 12 09.32645 02 45 24.06 +10 04 33.2                      691
     J94X01M  C1994 12 09.37565 02 40 45.40 +11 16 18.0                      691
     J94X01M  C1994 12 09.38093 02 40 12.61 +11 24 54.0          16.5 V      691
     J94X01M  C1994 12 09.38803 02 39 27.60 +11 36 45.6                      691
     J94X01M  C1994 12 09.39398 02 38 48.66 +11 46 59.9                      691
     J94X01M  C1994 12 09.39985 02 38 09.50 +11 57 21.8                      691

Observer details:
691 Steward Observatory, Kitt Peak.  Observer J. V. Scotti.  0.9-m
    Spacewatch telescope.

Orbital elements:
1994 XM1
Epoch 1994 Nov. 24.0 TT = JDT 2449680.5                 Marsden
M 343.93334              (2000.0)            P               Q
n   0.34599227     Peri.   41.99321     -0.48384464     -0.86993443
a   2.0095175      Node    77.14890     +0.77463496     -0.47646150
e   0.5539642      Incl.    5.61769     +0.40722848     -0.12727346
P   2.85           H    28.0          G   0.15
From 13 observations 1994 Dec. 9.

Ephemeris:
1994 XM1                 a,e,i = 2.01, 0.55, 6                   q = 0.8963
Date    TT    R. A. (2000) Decl.     Delta      r     Elong.  Phase     V
1994 12 09.00 03 00.64   +05 53.4    0.0051   0.989   146.1    33.7    17.9
1994 12 09.05 02 59.36   +06 19.8    0.0048   0.989   146.1    33.8    17.8
1994 12 09.10 02 57.89   +06 49.8    0.0045   0.989   146.0    33.9    17.6
1994 12 09.15 02 56.19   +07 24.4    0.0041   0.988   145.9    34.0    17.5
1994 12 09.20 02 54.21   +08 04.7    0.0038   0.988   145.7    34.2    17.3
1994 12 09.25 02 51.87   +08 52.1    0.0035   0.988   145.5    34.4    17.1
1994 12 09.30 02 49.06   +09 48.7    0.0032   0.988   145.3    34.6    16.9
1994 12 09.35 02 45.62   +10 57.4    0.0029   0.987   145.0    34.9    16.7
1994 12 09.40 02 41.33   +12 22.2    0.0026   0.987   144.5    35.4    16.5
1994 12 09.45 02 35.81   +14 09.5    0.0023   0.987   143.8    36.1    16.2
1994 12 09.50 02 28.47   +16 29.0    0.0020   0.986   142.8    37.1    16.0
1994 12 09.55 02 18.25   +19 36.0    0.0017   0.986   141.2    38.8    15.6
1994 12 09.60 02 03.14   +23 55.9    0.0014   0.986   138.4    41.5    15.3
1994 12 09.65 01 38.80   +30 09.0    0.0011   0.986   133.6    46.3    15.0
1994 12 09.70 00 54.71   +39 03.3    0.0009   0.985   125.0    55.0    14.8
1994 12 09.75 23 24.47   +49 46.0    0.0008   0.985   110.2    69.8    14.8
1994 12 09.80 20 44.89   +53 58.4    0.0007   0.985    90.1    89.9    15.4
1994 12 09.85 18 30.31   +45 59.1    0.0008   0.985    71.4   108.5    16.6
1994 12 09.90 17 23.37   +35 54.9    0.0010   0.984    58.9   121.0    17.9
1994 12 09.95 16 49.24   +28 23.2    0.0013   0.984    51.4   128.5    19.0
1994 12 10.00 16 29.40   +23 09.5    0.0015   0.984    46.9   133.0    19.9
1994 12 10.05 16 16.61   +19 27.6    0.0018   0.984    44.1   135.8    20.6
1994 12 10.10 16 07.73   +16 45.1    0.0021   0.983    42.2   137.7    21.1
1994 12 10.15 16 01.22   +14 42.0    0.0024   0.983    40.9   139.0    21.6
1994 12 10.20 15 56.25   +13 06.0    0.0027   0.983    40.0   139.9    22.0
1994 12 10.25 15 52.33   +11 49.3    0.0030   0.982    39.3   140.5    22.3
1994 12 10.30 15 49.17   +10 46.6    0.0033   0.982    38.8   141.0    22.6
1994 12 10.35 15 46.57   +09 54.5    0.0037   0.982    38.4   141.4    22.8
1994 12 10.40 15 44.39   +09 10.6    0.0040   0.982    38.1   141.7    23.0
1994 12 10.45 15 42.53   +08 33.1    0.0043   0.981    37.9   142.0    23.2
1994 12 10.50 15 40.93   +08 00.6    0.0046   0.981    37.7   142.1    23.4

Brian G. Marsden                                              M.P.E.C. 1994-X05

Read MPEC 1994-X04 Read MPEC 1994-X06


Our Web policy. Index to the CBAT/MPC/ICQ pages.

MPC